Regional Weather Roundup
Issued by NWS

Home | Current Version | Previous Version | Graphics & Text | Print | Product List | Glossary On
Versions: 1 2 3 4 5 6 7 8 9 10 11 12 13 14 15 16 17 18 19 20 21 22 23 24 25 26 27 28 29 30 31 32 33 34 35 36 37 38 39 40 41 42 43 44 45 46 47 48 49 50
000
ASUS43 KBIS 051910
RWRND

NORTH DAKOTA REGIONAL WEATHER ROUNDUP
NATIONAL WEATHER SERVICE BISMARCK ND
100 PM CST MON DEC 05 2016

NOTE: "FAIR" INDICATES FEW OR NO CLOUDS BELOW 12,000 FEET WITH NO
SIGNIFICANT WEATHER AND/OR OBSTRUCTIONS TO VISIBILITY.


NDZ001>003-009>011-017-052000-
NORTHWEST NORTH DAKOTA

CITY           SKY/WX    TMP DP  RH WIND       PRES   REMARKS
WILLISTON      LGT SNOW  20  14  77 NW35G44   29.71R VSB 3/4 WCI   0
MINOT          CLOUDY    24  18  77 SW15      29.56R WCI  11
MINOT AFB      CLOUDY    23  19  87 W12       29.54S WCI  11
$$

NDZ018>021-031>035-040>046-052000-
SOUTHWEST NORTH DAKOTA

CITY           SKY/WX    TMP DP  RH WIND       PRES   REMARKS
BISMARCK       HVY SNOW  31  29  92 NW15      29.58R VSB 1/4
DICKINSON      SNOW      19  15  84 NW33G40   29.63F VSB 1/4 WCI  -1
GARRISON         N/A     25  21  85 W16       29.59R WCI  12
HETTINGER ARPT MIX PCPN  21  17  84 NW31G38   29.67R FOG     WCI   2
$$

NDZ004>008-012>016-024-026-027-054-052000-
NORTHEAST NORTH DAKOTA

CITY           SKY/WX    TMP DP  RH WIND       PRES   REMARKS
GRAND FORKS    CLOUDY    30  26  85 NE12      29.63F
GRND FRKS AFB  CLOUDY    28  27  98 E9        29.63F WCI  19
DEVILS LAKE    CLOUDY    26  25  96 E9        29.61F FOG     WCI  17
$$

NDZ022-023-025-028>030-036>039-047>053-052000-
SOUTHEAST NORTH DAKOTA

CITY           SKY/WX    TMP DP  RH WIND       PRES   REMARKS
FARGO          CLOUDY    34  28  79 E10       29.55F
JAMESTOWN      CLOUDY    29  27  92 N10       29.55F WCI  20
$$





USA.gov is the U.S. government's official web portal to all federal, state and local government web resources and services.